STARLINK-3058, 49138

Orbit data source: Space-Track

STARLINK-3058, 49138 is a payload satellite owned by SpaceX/Seattle (US) in LEO that was launched on Tue, 14 Sep 2021 UTC via an FALCON 9 launch vehicle from the Air Force Western Test Range (AFWTR). Payload-class satellites include a variety of spacecraft equipped with specific instruments for various scientific and technological missions. These include communications satellites like Starlink; space stations such as the ISS; scientific satellites like the Hubble; Earth observation satellites from companies like Planet Labs, Umbra, and HawkEye 360; GPS; miniature CubeSats for education and research; and military/defense satellites.

Loading next visibility...
Identifier
49138, 2021-082J
Orbit
LEO
Country
Flag of USUS
Related business
Manufacturer
SpaceX/Seattle
Mission
Operational Commercial Communications
Bus & Motor
STARLINK, Unknown motor
Mass
297 kg wet, ~275 kg dry
Launch date (UTC)
2021-09-14 (4 years ago)
Launch vehicle
FALCON 9
Launch site
Air Force Western Test Range (AFWTR)
Object type
Payload
Rocket body
Debris
Shape & HBR
Box + 1 Pan, 10.1 m
Radar Cross Section
13.562 m², Large (>1 m²)

Expand to show TLE details & history
Last TLE update: 9 hours ago

TLE from 9 hours ago
0 STARLINK-3058
1 49138U 21082J   25311.14263993  .00002016  00000-0  17663-3 0  9992
2 49138  70.0023 243.4436 0002503 260.9449  99.1427 14.98341572227624
Epoch: 2025-11-07T03:25Z
TLE epoch observation values (Epoch: 2025-11-07T03:25:24.089Z)
Latitude
-0.00004°
Longitude
145.50237°
Altitude
574.721 km
Speed
7.574 km/s
True Right ascension
16h 13m 46s
True Declination
0° 00' 00"
Sunlit
Object was in daylight at epoch
Visualization orbit readout
Latitude
Unknown
Longitude
Unknown
Altitude
Unknown
Speed
Unknown
Apparent Right ascension
Unknown
Apparent Declination
Unknown
Sunlit
N/A
Visualization observer readout
Local Sidereal Time
08:43:32
Azimuth
Unknown
Elevation
Unknown
Doppler factor
Unknown
Orbital elements
Apogee altitude
571.707 km
Perigee altitude
568.229 km
Semi-major axis
6,948.105 km
Eccentricity
0.00025
Inclination
70.0023°
RAAN
243.4436°
Arg. of periapsis
260.9449°
True anomaly
99.17102°
Mean anomaly
99.1427°
Eccentric anomaly
99.15686°
Mean motion
3.74752 °/min
Orbital period
96.06 mins
BSTAR
0.00017663
Loading maneuver chart data...
Computing Atmospheric mass density...
Loading historical data...
Loading historical data...
Loading historical data...
Loading historical data...
Loading historical data...
Loading historical data...
Loading historical data...

Documentation

Showing up to 5 results
|